Vertical_Velocity
3 18 5 7 5 -4 -4 3 5 7 -3 2 2 2 -2 4 3 3 3 4 3 0 -9 -14 -16 -6 5 -13 -2 19 -1 3 0 13 2 -0 1 -2 -4 4 0 -0 -1
13 9 -1 -5 5 -1 3 8 7 -12 9 -1 5 2 -4 -1 2 1 0 2 0 0 1 -3 -3 -4 -8 -3 7 7 3 16 -3 -7 0 1 -1 -5 -0 -2 -5 -1 1
-8 -0 1 10 4 3 5 1 5 8 -3 -8 -3 -3 -3 -2 -2 -0 -3 -6 -9 -7 -3 -4 2 1 -1 7 1 3 -1 18 11 -6 -7 -0 2 -2 -1 3 7 -1 -1
-8 -6 -3 4 8 0 0 -4 -2 3 2 2 3 1 2 -0 -1 -4 -1 0 1 -1 -2 6 -5 -0 1 0 5 6 10 4 2 2 4 -2 -5 3 5 -4 4 2 -3
-1 3 -5 -1 2 1 8 4 3 0 2 -1 3 2 2 -2 -1 -2 2 -2 4 5 3 5 -7 -4 -2 -2 3 7 5 7 -2 -0 -7 6 1 -2 -0 -4 -1 5 -2
9 -3 -5 -10 -4 -1 1 -2 0 -3 2 -3 -2 4 -3 1 -1 6 -2 -0 -1 -4 -7 -2 -7 -6 -0 3 -0 11 8 -2 -5 -3 -7 -4 -0 -4 -0 -0 -4 3 6
4 6 3 2 17 9 3 0 4 1 2 -0 2 -1 -2 3 1 0 5 6 1 -1 -2 -3 -1 -8 -6 5 2 9 10 3 5 1 -5 -3 -3 -7 2 0 1 -0 -1
-0 13 13 18 2 -3 -2 -0 4 3 4 -4 0 3 -0 6 2 7 -1 2 -1 -2 1 -3 -2 8 0 -11 4 -7 11 4 7 8 2 1 -3 -3 -1 0 1 7 2
-10 1 3 5 -3 -3 -5 -1 -2 1 6 -2 -0 1 -1 8 3 -2 4 3 6 3 5 2 2 0 7 -0 -4 -4 -4 2 2 2 5 5 2 5 3 4 4 2 0
-5 -6 -1 2 -5 -2 -3 -2 0 6 7 6 4 6 4 6 10 8 5 5 2 1 0 5 3 -0 1 4 4 1 0 -2 -0 -2 4 2 2 3 -3 2 3 3 -4
-1 -1 -1 2 -4 -4 0 2 1 1 6 7 4 2 3 1 3 5 3 0 2 4 -5 -4 -3 -1 -2 3 4 -0 3 4 1 2 5 1 0 0 1 3 1 -0 -5
0 -3 0 -1 -2 -0 0 -3 -1 -1 2 4 3 3 4 3 4 6 3 2 3 -2 -5 -4 1 1 2 2 -2 -0 -1 -1 -2 3 1 -2 -0 -2 2 1 0 -3 -2
-2 -8 1 2 -4 -3 -1 6 -3 -1 1 2 -2 1 2 3 4 5 4 6 3 -3 1 -2 6 5 3 -1 -1 -2 -3 0 -1 -1 -2 -1 1 4 4 -2 4 0 2
-5 -6 2 2 -3 -1 -1 3 0 -3 -2 -0 -3 1 0 -2 -0 -5 7 2 2 5 1 3 1 1 3 1 0 -1 -0 2 -0 2 0 2 1 -4 -1 -1 3 -1 2
-6 0 -2 -4 -1 2 2 -2 -1 0 2 2 2 1 0 -1 -2 3 1 -2 -2 -1 1 1 -2 -1 -2 -2 -0 1 0 -1 -2 -1 -1 -1 -2 -1 -2 -0 0 2 -1
3 -5 -1 -3 -2 -1 -2 3 -1 1 -2 -1 -2 1 2 4 3 4 3 1 2 2 1 -2 -2 -1 -1 -2 -2 -0 -0 -0 -1 -1 -1 1 -0 -1 0 -2 0 -1 -2
7 -5 -2 -1 1 -0 -1 -0 2 -1 -0 -4 -1 2 1 2 2 2 2 0 4 4 -1 1 0 -1 -1 -1 -0 -0 -0 1 3 2 2 1 1 1 1 1 0 -1 -2
2 1 -3 -0 0 -2 1 4 -1 -0 -0 1 -2 -3 -3 -0 -0 0 3 5 2 1 2 -2 -3 -2 -1 -1 -1 -1 -0 -0 -1 0 0 1 1 1 -0 -1 -1 -1 -1
1 -2 -0 -2 -0 0 -4 -1 2 0 1 1 1 -0 1 -1 2 2 3 1 -1 -0 -1 1 -0 -2 -1 -0 -1 -1 -0 -1 -1 -1 -0 1 0 -1 -2 0 0 0 2
0 2 -0 0 -0 -2 1 -1 -1 1 1 -0 1 -1 1 3 -1 -4 -2 0 -1 0 2 2 -1 -0 -1 1 1 -1 -1 -1 -1 -1 1 0 1 -1 -1 1 -0 -1 -1
-5 -0 -1 2 -1 -0 1 1 0 -0 1 1 1 1 4 3 2 1 0 -0 1 0 1 2 -0 -0 -0 -0 1 1 1 -0 -1 -0 -1 0 1 -3 0 0 0 0 0
2 1 2 -1 -1 1 -1 -0 -1 -1 -1 0 -0 1 2 4 2 2 1 -0 1 1 1 2 2 -0 -1 0 0 -0 1 -0 -0 -0 -1 -1 -1 -0 0 -1 -0 -0 1
-1 1 -2 -2 1 -1 -1 1 2 2 1 1 1 1 2 2 2 1 2 1 2 1 2 0 1 3 -2 -2 -0 -1 -2 -3 -1 2 2 3 2 1 1 1 1 1 1
1 -0 -1 -1 -2 1 1 1 1 -1 -0 0 1 2 2 2 2 1 2 2 1 1 1 1 1 3 2 1 3 4 4 4 3 1 4 4 3 2 3 3 1 1 1
2 2 -0 2 2 1 2 1 -1 -0 -0 -0 0 1 3 6 9 8 7 4 4 7 9 8 7 5 5 3 1 1 0 1 2 3 2 3 3 3 2 2 2 2 2
2 1 2 3 3 3 1 0 1 1 1 1 1 0 1 1 1 2 2 2 1 2 3 2 1 -0 0 0 -1 -1 -0 0 1 1 1 1 1 1 2 3 5 4 0
Height
1440 1439 1438 1438 1436 1437 1438 1436 1433 1434 1436 1439 1439 1440 1441 1442 1444 1445 1447 1450 1453 1459 1463 1467 1473 1480 1486 1492 1498 1499 1500 1502 1502 1503 1507 1509 1513 1515 1517 1522 1522 1525 1527
1436 1434 1432 1431 1431 1432 1430 1431 1430 1431 1433 1432 1434 1434 1437 1437 1441 1443 1445 1448 1450 1455 1460 1465 1469 1475 1483 1490 1493 1495 1498 1501 1497 1498 1506 1509 1511 1512 1516 1518 1521 1521 1525
1432 1429 1428 1428 1426 1426 1427 1427 1428 1427 1428 1428 1428 1429 1433 1435 1438 1441 1443 1445 1449 1453 1457 1462 1468 1475 1481 1486 1488 1491 1496 1496 1495 1496 1503 1508 1510 1512 1515 1519 1520 1520 1521
1429 1427 1424 1424 1423 1423 1422 1420 1421 1423 1423 1424 1424 1426 1427 1431 1433 1437 1439 1443 1447 1452 1457 1462 1467 1472 1478 1483 1486 1489 1491 1490 1493 1498 1501 1504 1507 1511 1513 1517 1521 1522 1522
1425 1423 1420 1419 1418 1418 1418 1416 1415 1418 1419 1421 1423 1424 1426 1428 1430 1434 1437 1443 1448 1451 1454 1458 1463 1469 1475 1480 1483 1485 1488 1487 1490 1494 1501 1503 1502 1507 1509 1515 1521 1521 1522
1419 1417 1415 1414 1414 1413 1412 1411 1412 1411 1412 1415 1417 1420 1421 1424 1427 1431 1435 1439 1441 1446 1449 1454 1460 1466 1471 1475 1479 1483 1485 1485 1487 1492 1494 1497 1498 1502 1508 1511 1518 1522 1520
1413 1410 1408 1408 1408 1407 1406 1407 1406 1406 1406 1408 1410 1413 1416 1420 1423 1427 1432 1435 1436 1441 1445 1452 1460 1464 1469 1472 1475 1480 1481 1482 1487 1489 1490 1491 1495 1498 1505 1509 1513 1518 1517
1408 1405 1403 1403 1402 1402 1401 1401 1402 1402 1401 1401 1405 1407 1410 1415 1419 1423 1427 1432 1435 1440 1444 1448 1455 1458 1463 1468 1472 1475 1478 1480 1482 1485 1488 1490 1495 1497 1504 1507 1513 1514 1516
1403 1401 1399 1397 1395 1395 1396 1396 1396 1397 1396 1396 1399 1401 1404 1408 1413 1418 1423 1428 1433 1438 1443 1446 1450 1454 1458 1463 1468 1471 1475 1477 1479 1483 1485 1489 1494 1497 1502 1507 1511 1508 1513
1397 1395 1394 1392 1390 1390 1391 1392 1392 1392 1392 1392 1395 1398 1400 1403 1408 1414 1419 1423 1428 1433 1438 1441 1445 1450 1454 1458 1463 1465 1468 1472 1476 1479 1483 1487 1490 1495 1499 1503 1507 1505 1509
1391 1389 1388 1387 1386 1387 1387 1387 1387 1388 1388 1390 1390 1395 1397 1401 1407 1411 1415 1420 1424 1428 1432 1437 1442 1447 1451 1455 1457 1460 1464 1467 1471 1476 1479 1482 1488 1491 1497 1499 1502 1503 1505
1385 1383 1384 1383 1383 1384 1384 1383 1383 1384 1385 1387 1390 1392 1395 1399 1404 1410 1414 1418 1422 1425 1429 1435 1440 1444 1448 1450 1453 1456 1459 1463 1467 1471 1474 1478 1483 1487 1492 1494 1497 1500 1501
1380 1380 1381 1381 1382 1382 1382 1381 1380 1382 1383 1385 1388 1391 1393 1397 1402 1406 1414 1417 1421 1424 1428 1433 1438 1441 1443 1445 1448 1452 1456 1460 1463 1466 1469 1473 1478 1483 1487 1490 1493 1495 1498
1378 1379 1379 1380 1380 1381 1380 1380 1380 1381 1383 1384 1387 1389 1392 1396 1401 1405 1411 1415 1419 1423 1427 1431 1434 1437 1440 1443 1446 1449 1453 1456 1459 1462 1466 1470 1474 1478 1481 1485 1488 1490 1494
1377 1379 1378 1379 1380 1380 1379 1379 1379 1380 1382 1384 1386 1388 1391 1394 1398 1403 1407 1411 1415 1419 1424 1428 1431 1434 1437 1440 1443 1447 1450 1453 1456 1460 1464 1467 1471 1474 1476 1480 1483 1485 1488
1378 1377 1377 1378 1379 1379 1379 1378 1379 1380 1380 1382 1384 1387 1390 1394 1398 1403 1406 1409 1413 1417 1421 1424 1427 1430 1433 1436 1440 1443 1446 1449 1453 1457 1461 1465 1467 1470 1473 1475 1479 1480 1483
1376 1376 1376 1376 1377 1378 1378 1378 1379 1379 1380 1381 1383 1385 1388 1393 1397 1401 1404 1406 1411 1415 1417 1421 1423 1426 1430 1433 1437 1440 1443 1446 1450 1453 1457 1460 1463 1466 1469 1471 1473 1476 1479
1374 1373 1374 1375 1375 1375 1376 1376 1377 1378 1379 1380 1382 1385 1388 1391 1395 1398 1400 1404 1407 1410 1414 1417 1419 1423 1427 1430 1433 1436 1439 1442 1445 1448 1452 1455 1458 1461 1464 1467 1470 1472 1475
1371 1371 1372 1373 1374 1373 1374 1374 1374 1375 1377 1379 1381 1383 1386 1389 1392 1394 1397 1398 1401 1405 1408 1412 1415 1419 1422 1426 1430 1433 1436 1438 1441 1444 1447 1450 1453 1456 1459 1462 1465 1468 1470
1369 1370 1370 1371 1371 1371 1372 1372 1372 1373 1373 1375 1377 1380 1383 1386 1387 1389 1392 1395 1397 1401 1404 1408 1411 1415 1419 1422 1425 1429 1432 1435 1437 1439 1442 1445 1448 1450 1453 1456 1459 1461 1464
1366 1367 1368 1368 1369 1369 1369 1369 1369 1370 1371 1372 1374 1376 1379 1381 1383 1385 1388 1391 1394 1397 1400 1404 1408 1412 1415 1419 1422 1424 1426 1429 1432 1435 1437 1440 1443 1445 1447 1450 1453 1455 1457
1364 1365 1366 1366 1367 1367 1367 1367 1367 1367 1368 1369 1371 1373 1375 1377 1379 1382 1385 1388 1391 1394 1397 1401 1405 1408 1411 1414 1417 1419 1422 1424 1427 1430 1433 1435 1437 1439 1442 1443 1446 1448 1450
1363 1363 1364 1365 1365 1365 1365 1365 1365 1366 1367 1368 1369 1371 1372 1374 1377 1379 1382 1386 1389 1392 1395 1399 1402 1405 1408 1411 1413 1416 1418 1420 1423 1425 1427 1429 1431 1433 1435 1437 1439 1440 1442
1361 1362 1363 1365 1365 1365 1365 1365 1366 1367 1368 1368 1369 1370 1372 1374 1376 1379 1382 1384 1387 1390 1394 1397 1400 1403 1405 1407 1410 1412 1414 1416 1418 1420 1422 1424 1425 1427 1429 1430 1432 1433 1435
1362 1362 1363 1364 1365 1365 1366 1367 1368 1369 1370 1370 1371 1372 1374 1375 1377 1379 1381 1384 1386 1389 1392 1395 1397 1399 1401 1403 1404 1406 1408 1410 1412 1414 1416 1418 1419 1421 1422 1423 1425 1426 1427
1362 1363 1364 1364 1365 1366 1367 1369 1370 1371 1372 1373 1373 1374 1375 1376 1378 1380 1381 1383 1385 1387 1389 1391 1393 1395 1397 1399 1401 1402 1404 1406 1407 1409 1410 1412 1413 1414 1415 1416 1417 1418 1419